Location: Hains Lake
(37.8540°N, 99.8578°W)
Time: 02:29:54
(UTC+00:00)

Vanguard 1 - Pass Details

Date: 09 December 2021
Orbit: 652 x 3830 km, 34.2° (Epoch: 21 January)

Event Time Altitude Azimuth Distance (km) Brightness Sun altitude
Exits shadow 09:19:53 72° 163° (SSE) 3,650 12.6 -51.2°
Drops below altitude 10° 09:35:56 10° 114° (ESE) 5,378 14.2 -48.0°
Sets 09:39:17 0° 113° (ESE) 6,052 14.7 -47.4°
